COSMOS 2251 DEB, 35433

Orbit data source: Space-Track

COSMOS 2251 DEB, 35433 is space debris in LEO originally from a launch on Wed, 16 Jun 1993 UTC launched from the Plesetsk Missile And Space Complex (PKMTR). The debris from Iridium 33, an American commercial communications satellite, has been tracked extensively since its accidental collision with the defunct Russian satellite Cosmos 2251 in 2009. This event, occurring at high speed in low Earth orbit (LEO), generated thousands of pieces of space debris, significantly increasing the risk of further collisions. The Iridium 33 debris cloud has impacted space traffic management and orbital debris mitigation strategies, making it a subject of ongoing study in space situational awareness.

Loading next visibility...
Identifier
35433, 1993-036AKB
Orbit
LEO
Country
Flag of CISCIS
Related business
Manufacturer
Unknown
Mission
Spacecraft
Bus & Motor
Unknown
Mass
Unknown
Launch date (UTC)
1993-06-16 (33 years ago)
Launch vehicle
Unknown
Launch site
Plesetsk Missile And Space Complex (PKMTR)
Object type
Payload
Rocket body
Debris
Shape & HBR
Unknown shape, 0.1 m
Radar Cross Section
Small (<0.1 m²)

Expand to show TLE details & history
Last TLE update: 1 week ago

TLE from 1 week ago
0 COSMOS 2251 DEB
1 35433U 93036AKB 26027.39138823  .00000950  00000-0  34250-3 0  9994
2 35433  74.0333 254.7987 0027329 300.4201 240.0882 14.34837587872354
Epoch: 2026-01-27T09:23Z
TLE epoch observation values (Epoch: 2026-01-27T09:23:35.943Z)
Latitude
-0.34094°
Longitude
167.32251°
Altitude
788.051 km
Speed
7.455 km/s
True Right ascension
04h 59m 34s
True Declination
0° 20' 20"
Sunlit
Object was in full shadow at epoch
Visualization orbit readout
Latitude
Unknown
Longitude
Unknown
Altitude
Unknown
Speed
Unknown
Apparent Right ascension
Unknown
Apparent Declination
Unknown
Sunlit
N/A
Visualization observer readout
Local Sidereal Time
07:12:14
Azimuth
Unknown
Elevation
Unknown
Doppler factor
Unknown
Orbital elements
Apogee altitude
792.776 km
Perigee altitude
753.688 km
Semi-major axis
7,151.369 km
Eccentricity
0.00273
Inclination
74.0333°
RAAN
254.7987°
Arg. of periapsis
300.4201°
True anomaly
239.81721°
Mean anomaly
240.0882°
Eccentric anomaly
239.95266°
Mean motion
3.58888 °/min
Orbital period
100.31 mins
BSTAR
0.0003425
Loading maneuver chart data...
Computing Atmospheric mass density...

Documentation

Showing up to 5 results
|